Temp
5 4 5 6 5 6 6 5 6 7 6 5 5 6 6 7 6 6 9 8 7 7 7 7 7 7 7 7 7 7 7 7 7 8 8 7 8 8 8 7 7 7 7 7
4 4 5 5 4 4 4 5 5 6 5 5 5 6 6 6 8 9 8 7 7 6 6 6 6 6 6 6 6 6 6 7 7 7 7 7 7 7 7 7 7 7 7 7
4 4 5 4 3 3 4 5 5 5 5 5 6 7 8 7 7 8 7 7 6 6 6 5 5 5 5 5 5 5 5 6 5 5 4 5 5 5 5 6 6 6 7 7
3 4 4 4 3 3 4 4 4 4 4 7 4 9 8 6 6 7 6 6 5 5 5 4 4 4 4 4 4 3 3 4 4 4 4 4 4 4 4 4 4 5 5 6
4 4 4 3 3 3 4 3 3 3 4 5 6 5 9 6 5 6 5 4 4 4 4 3 3 3 3 3 3 2 3 3 2 2 3 3 3 4 4 3 3 4 4 4
3 3 3 3 3 3 2 2 3 3 4 5 6 6 9 7 5 4 4 3 3 3 3 2 2 2 2 2 2 2 1 1 1 1 1 1 1 1 1 2 2 3 3 3
2 1 2 2 2 3 2 3 6 6 5 7 4 5 7 4 4 3 3 3 2 2 2 2 2 1 1 1 1 1 1 0 0 -0 -0 -0 0 0 0 1 1 1 2 2
3 2 2 1 2 3 2 3 5 4 9 8 3 5 5 3 3 2 2 2 1 1 0 0 0 0 -0 -0 -0 -0 -1 -1 -1 -1 -1 -1 -1 -1 -1 -0 0 0 1 1
3 4 1 1 1 2 2 2 3 3 3 3 5 5 3 3 2 2 1 0 -1 -1 -1 -1 -1 -1 -1 -1 -2 -2 -2 -2 -2 -2 -2 -2 -2 -2 -2 -1 -1 -1 -1 0
2 2 1 1 1 1 2 3 2 2 2 5 7 6 6 0 0 1 -1 -1 -2 -2 -2 -3 -3 -2 -2 -2 -2 -2 -2 -2 -3 -3 -2 -2 -2 -3 -2 -2 -2 -2 -2 -2
1 2 -0 -0 0 1 0 1 2 2 1 3 5 6 1 1 0 -0 -1 -2 -3 -4 -4 -4 -3 -3 -3 -3 -3 -3 -3 -3 -3 -3 -3 -3 -3 -3 -3 -3 -3 -3 -3 -3
0 1 1 1 0 0 1 1 1 1 -0 0 1 2 1 -0 -1 -2 -4 -5 -5 -5 -6 -5 -5 -5 -5 -5 -5 -6 -5 -5 -5 -4 -4 -4 -4 -4 -4 -4 -4 -4 -4 -4
1 0 0 -1 -2 -1 -1 -1 -1 -0 -0 -0 0 2 -0 -1 -2 -3 -5 -5 -6 -6 -6 -6 -6 -6 -6 -6 -6 -6 -6 -6 -6 -6 -6 -5 -5 -5 -5 -5 -5 -5 -4 -4
-0 -0 1 3 2 1 -1 -2 -2 -2 -2 -1 -1 -1 -1 -2 -3 -5 -6 -6 -6 -7 -6 -7 -7 -7 -7 -8 -7 -7 -7 -7 -7 -6 -6 -6 -6 -6 -6 -5 -5 -5 -5 -5
-2 -1 -2 -2 -3 -2 -2 -2 -3 -3 -4 -3 -2 -2 -3 -4 -5 -6 -7 -7 -7 -7 -7 -8 -8 -8 -8 -8 -8 -8 -8 -7 -7 -7 -7 -8 -7 -6 -6 -6 -6 -5 -5 -5
-3 -3 -5 -5 -4 -4 -5 -5 -4 -4 -5 -4 -4 -4 -5 -6 -6 -7 -7 -7 -8 -8 -8 -9 -9 -9 -9 -9 -9 -9 -8 -8 -8 -8 -8 -8 -8 -8 -7 -7 -6 -6 -6 -6
-5 -4 -6 -6 -6 -6 -6 -5 -5 -5 -5 -5 -5 -5 -6 -7 -7 -8 -8 -9 -9 -9 -9 -9 -9 -9 -9 -9 -9 -10 -9 -8 -8 -8 -8 -8 -8 -8 -8 -7 -7 -7 -7 -6
-5 -6 -7 -6 -7 -5 -5 -5 -6 -6 -6 -7 -7 -7 -7 -8 -9 -9 -9 -9 -9 -9 -10 -10 -10 -10 -10 -10 -9 -9 -9 -9 -9 -8 -8 -8 -9 -9 -8 -8 -7 -7 -7 -7
-7 -7 -7 -7 -6 -5 -7 -7 -7 -7 -6 -7 -8 -8 -9 -9 -10 -8 -9 -9 -10 -10 -9 -9 -9 -10 -10 -9 -9 -9 -10 -9 -11 -10 -9 -9 -9 -9 -8 -8 -8 -8 -7 -7
-7 -7 -6 -8 -7 -5 -6 -7 -7 -7 -7 -7 -8 -8 -9 -10 -10 -9 -10 -9 -9 -11 -11 -11 -11 -11 -10 -9 -11 -11 -10 -10 -11 -10 -10 -10 -10 -10 -10 -9 -9 -8 -8 -8
-9 -9 -8 -8 -7 -7 -7 -8 -8 -8 -7 -8 -8 -9 -9 -10 -11 -9 -8 -9 -9 -9 -9 -9 -9 -9 -10 -10 -10 -11 -11 -11 -11 -10 -10 -10 -10 -10 -10 -9 -9 -9 -9 -9
-8 -9 -9 -9 -9 -8 -8 -8 -9 -8 -8 -9 -9 -9 -9 -9 -9 -10 -9 -9 -9 -9 -9 -9 -9 -9 -9 -10 -10 -10 -10 -11 -12 -10 -10 -10 -10 -10 -10 -10 -9 -9 -9 -9
-8 -8 -8 -8 -8 -8 -8 -9 -9 -9 -9 -9 -9 -10 -10 -10 -10 -10 -10 -9 -9 -9 -9 -9 -9 -9 -10 -10 -11 -11 -11 -11 -11 -11 -10 -10 -9 -10 -10 -10 -10 -10 -10 -10
-9 -8 -8 -8 -9 -8 -9 -9 -9 -9 -9 -9 -10 -10 -10 -10 -9 -9 -9 -9 -9 -10 -9 -10 -10 -10 -10 -11 -11 -11 -11 -11 -11 -10 -10 -10 -10 -10 -10 -10 -10 -10 -10 -10
-9 -8 -9 -10 -10 -10 -9 -9 -9 -9 -10 -10 -10 -10 -10 -9 -9 -9 -9 -9 -9 -10 -10 -10 -10 -11 -11 -11 -11 -11 -11 -11 -10 -10 -10 -10 -10 -10 -10 -10 -10 -10 -10 -10
-9 -9 -10 -10 -10 -10 -11 -10 -10 -10 -10 -10 -10 -9 -9 -10 -10 -10 -10 -10 -10 -10 -10 -10 -10 -10 -11 -11 -10 -11 -11 -11 -10 -10 -10 -10 -10 -11 -10 -10 -10 -10 -10 -10
Height
3111 3114 3111 3117 3118 3120 3121 3120 3119 3119 3120 3118 3117 3117 3117 3117 3117 3117 3113 3115 3114 3114 3114 3114 3115 3114 3114 3114 3114 3114 3114 3114 3113 3113 3113 3112 3113 3113 3112 3111 3111 3111 3112 3113
3107 3105 3111 3114 3113 3114 3115 3115 3114 3114 3113 3110 3110 3108 3110 3110 3108 3108 3107 3108 3109 3109 3109 3110 3110 3110 3109 3109 3109 3108 3107 3107 3106 3105 3103 3103 3102 3102 3102 3102 3101 3100 3101 3102
3102 3104 3104 3106 3107 3108 3109 3109 3111 3111 3109 3106 3105 3101 3102 3101 3102 3103 3103 3103 3104 3105 3106 3105 3105 3105 3105 3103 3103 3102 3101 3100 3099 3097 3096 3094 3093 3091 3090 3090 3090 3091 3089 3089
3098 3099 3099 3101 3102 3105 3106 3106 3105 3106 3107 3104 3102 3098 3098 3096 3098 3098 3099 3099 3100 3100 3099 3099 3098 3097 3096 3094 3094 3094 3094 3093 3092 3091 3089 3087 3085 3083 3082 3080 3078 3077 3077 3076
3091 3090 3092 3095 3097 3099 3102 3101 3102 3103 3101 3100 3099 3100 3089 3091 3093 3093 3093 3093 3094 3095 3096 3094 3093 3091 3088 3088 3086 3085 3084 3082 3082 3081 3080 3079 3077 3075 3072 3070 3068 3067 3065 3064
3088 3086 3088 3091 3092 3094 3095 3096 3098 3099 3099 3092 3089 3093 3085 3087 3090 3088 3088 3090 3089 3089 3089 3088 3085 3083 3080 3080 3079 3078 3076 3073 3072 3070 3069 3067 3066 3065 3063 3061 3058 3055 3053 3051
3081 3081 3084 3085 3089 3089 3091 3094 3093 3092 3090 3082 3083 3085 3083 3082 3084 3085 3086 3084 3084 3084 3083 3083 3081 3078 3075 3074 3073 3072 3070 3068 3065 3063 3060 3057 3055 3052 3050 3048 3046 3044 3042 3039
3074 3077 3077 3076 3080 3085 3085 3089 3088 3085 3073 3076 3081 3077 3077 3077 3079 3080 3081 3080 3079 3079 3077 3075 3074 3072 3070 3067 3064 3062 3061 3059 3057 3054 3051 3048 3045 3042 3039 3038 3035 3032 3028 3026
3067 3069 3069 3071 3075 3080 3081 3081 3084 3084 3083 3082 3074 3073 3074 3074 3074 3075 3075 3075 3072 3072 3070 3068 3066 3064 3062 3059 3057 3053 3051 3050 3048 3045 3043 3040 3037 3034 3031 3028 3025 3022 3019 3015
3060 3065 3065 3066 3070 3072 3075 3077 3079 3079 3078 3068 3058 3062 3066 3066 3067 3068 3068 3067 3065 3064 3063 3060 3057 3054 3052 3049 3048 3045 3042 3040 3039 3037 3034 3031 3029 3026 3023 3021 3018 3014 3010 3006
3056 3059 3063 3063 3063 3065 3068 3070 3071 3072 3071 3066 3058 3055 3059 3061 3062 3062 3062 3060 3058 3056 3053 3050 3048 3045 3041 3038 3035 3034 3032 3029 3027 3025 3024 3022 3020 3018 3014 3012 3008 3006 3002 2998
3049 3053 3056 3058 3056 3058 3062 3063 3064 3064 3065 3065 3065 3050 3056 3056 3057 3057 3055 3053 3051 3048 3044 3039 3036 3034 3030 3027 3025 3023 3020 3018 3016 3014 3013 3011 3010 3007 3005 3003 3000 2997 2994 2991
3041 3046 3051 3054 3056 3053 3053 3053 3056 3056 3058 3057 3060 3048 3052 3051 3051 3053 3049 3046 3043 3039 3035 3032 3029 3026 3023 3020 3017 3015 3013 3010 3007 3005 3004 3003 3001 2999 2996 2994 2992 2989 2985 2983
3035 3037 3038 3038 3040 3042 3048 3047 3048 3052 3052 3052 3050 3045 3055 3051 3047 3044 3040 3037 3034 3030 3028 3026 3023 3019 3018 3014 3010 3008 3005 3002 2999 2997 2995 2993 2990 2988 2987 2985 2983 2980 2977 2974
3031 3031 3032 3033 3036 3039 3042 3042 3044 3046 3048 3048 3048 3045 3045 3045 3040 3035 3033 3030 3026 3024 3022 3020 3016 3012 3011 3007 3003 3001 2997 2993 2991 2989 2986 2985 2982 2980 2978 2976 2974 2972 2969 2966
3023 3024 3025 3026 3029 3031 3033 3036 3038 3039 3040 3039 3040 3039 3038 3036 3032 3029 3026 3023 3020 3018 3014 3012 3009 3005 3001 2998 2995 2991 2988 2985 2982 2978 2976 2974 2973 2971 2970 2968 2966 2964 2961 2959
3015 3017 3021 3024 3028 3031 3028 3024 3028 3030 3031 3032 3032 3033 3030 3027 3024 3021 3019 3016 3012 3009 3005 3001 2998 2995 2991 2988 2985 2981 2977 2975 2972 2969 2967 2965 2962 2960 2960 2958 2957 2955 2954 2952
3007 3015 3020 3022 3025 3024 3014 3015 3019 3024 3025 3026 3024 3023 3022 3019 3014 3011 3011 3009 3006 3002 2997 2992 2987 2983 2980 2976 2973 2969 2966 2963 2959 2957 2955 2953 2952 2949 2948 2947 2946 2945 2944 2944
3005 3008 3014 3017 3017 3012 3009 3010 3014 3017 3020 3018 3016 3014 3012 3012 3009 3005 3007 3004 2997 2991 2986 2981 2976 2972 2967 2963 2960 2956 2952 2950 2946 2943 2941 2940 2939 2937 2936 2935 2934 2934 2933 2933
3002 3004 3008 3010 3010 3004 3001 3003 3007 3009 3009 3004 3005 3006 3004 3003 3001 2997 2995 2990 2984 2980 2975 2968 2963 2959 2955 2950 2946 2942 2939 2937 2935 2933 2930 2928 2927 2925 2924 2923 2922 2921 2920 2921
2995 2998 2999 3000 3002 2998 2998 2998 3001 3005 3005 2999 3000 2998 2996 2995 2994 2987 2983 2979 2975 2968 2962 2956 2951 2946 2943 2938 2934 2929 2926 2924 2922 2920 2918 2918 2917 2916 2915 2913 2912 2911 2909 2909
2984 2990 2992 2995 2997 2993 2989 2992 2997 2995 2993 2993 2993 2991 2988 2986 2982 2978 2974 2970 2964 2959 2953 2949 2941 2936 2932 2927 2921 2915 2912 2910 2909 2906 2905 2906 2906 2906 2905 2904 2903 2901 2900 2899
2981 2981 2982 2983 2984 2983 2984 2986 2985 2986 2986 2986 2985 2983 2980 2977 2974 2970 2965 2960 2955 2950 2944 2938 2931 2926 2921 2914 2907 2901 2897 2896 2896 2893 2893 2894 2894 2893 2893 2891 2890 2889 2888 2889
2973 2972 2975 2977 2978 2981 2980 2980 2980 2979 2980 2979 2977 2975 2972 2969 2966 2960 2956 2952 2947 2942 2935 2929 2922 2916 2909 2903 2896 2890 2886 2884 2884 2884 2884 2885 2883 2882 2880 2878 2875 2874 2876 2878
2966 2966 2969 2970 2974 2975 2975 2975 2974 2974 2974 2973 2971 2969 2965 2961 2958 2952 2948 2944 2938 2933 2927 2921 2914 2908 2900 2893 2887 2883 2879 2877 2877 2877 2879 2878 2876 2875 2874 2871 2867 2864 2866 2868
2958 2961 2962 2964 2968 2969 2970 2968 2968 2969 2968 2967 2965 2963 2960 2954 2950 2946 2943 2937 2931 2926 2920 2913 2908 2901 2893 2886 2881 2876 2873 2872 2872 2874 2874 2873 2872 2870 2867 2864 2862 2860 2859 2859
Wind_Speed
24 24 27 23 20 20 18 17 20 20 16 19 20 19 21 21 18 20 24 20 18 17 15 13 12 14 16 17 18 19 18 19 21 22 24 25 26 29 33 38 41 42 42 44
20 26 21 18 18 19 19 20 22 21 17 16 19 24 23 23 22 18 18 9 8 9 8 11 14 11 12 16 17 19 21 25 27 30 32 33 32 33 32 36 40 41 46 45
19 12 16 22 19 20 20 21 20 19 19 21 22 27 12 5 6 7 7 7 7 8 13 13 13 16 19 23 24 26 27 27 26 26 28 30 33 36 37 38 38 41 44 48
19 22 23 21 20 17 19 17 17 18 15 13 6 8 9 12 14 14 8 8 10 12 14 15 19 25 30 30 29 28 27 27 27 29 31 34 36 38 38 41 40 39 40 45
13 15 20 22 20 16 17 15 16 15 15 17 17 12 11 13 10 10 10 9 9 14 16 19 28 30 28 28 29 28 29 29 32 36 37 37 40 44 46 45 44 42 45 44
22 20 15 13 15 17 12 10 7 8 11 13 22 19 9 9 10 11 7 10 15 13 18 25 24 26 29 29 27 30 32 35 35 31 34 38 38 37 38 41 43 46 44 42
22 23 18 21 13 15 15 12 6 7 7 8 3 11 18 9 15 11 13 13 15 21 19 19 25 26 32 34 33 31 31 34 36 34 35 43 44 40 40 41 44 46 46 45
22 11 27 21 24 14 21 19 10 6 10 6 5 8 6 15 12 11 14 18 15 17 20 21 25 29 30 30 30 36 41 40 35 34 38 38 37 38 38 38 38 38 41 42
17 15 15 17 19 22 16 21 20 16 13 10 16 12 12 18 16 17 14 16 13 15 18 22 29 31 33 37 39 41 38 33 30 29 32 33 31 26 26 27 30 33 35 35
12 7 15 19 17 25 18 17 11 12 5 9 12 17 14 9 10 15 10 13 19 27 32 32 33 37 39 40 41 41 42 41 34 33 34 33 33 30 28 29 31 33 35 35
16 13 10 18 19 21 22 17 12 12 8 4 9 9 5 8 14 19 21 26 28 28 33 36 43 48 52 51 48 46 44 42 37 35 34 32 32 30 31 31 32 31 30 28
25 14 12 23 20 22 21 21 22 15 8 13 13 27 17 18 23 22 21 25 28 31 32 36 39 40 37 36 33 29 28 31 29 30 29 31 32 31 30 30 28 28 29 30
29 17 12 8 11 23 22 23 22 27 24 22 14 20 17 20 21 27 31 30 29 28 29 35 35 32 34 36 33 30 30 29 27 27 25 26 27 28 28 29 30 33 35 37
26 21 24 21 8 16 24 21 23 22 18 24 31 38 27 31 32 30 28 27 28 29 35 30 27 27 26 24 27 31 35 35 34 33 32 31 30 31 33 33 35 38 38 36
27 22 15 16 11 10 13 15 18 21 21 21 29 32 31 28 28 27 25 25 27 26 25 27 28 28 27 26 29 28 28 36 35 36 39 36 35 35 34 33 34 36 38 35
28 22 15 12 18 16 15 20 23 24 24 30 29 28 25 21 22 25 26 26 27 28 29 31 32 32 33 32 34 35 40 39 39 35 32 33 37 33 30 28 29 29 32 33
31 27 11 4 7 9 16 28 29 24 21 18 20 19 18 20 22 25 26 29 28 30 31 31 34 36 38 38 37 36 42 45 48 46 45 43 44 42 38 37 36 34 34 34
22 14 11 7 7 7 10 13 11 17 14 16 18 17 16 18 25 29 27 26 28 29 33 36 38 40 42 44 47 49 52 50 52 54 51 46 42 44 46 43 40 39 40 40
18 18 11 9 16 8 9 14 12 12 14 15 15 15 15 17 23 29 22 23 30 37 40 41 42 42 42 44 42 43 41 44 37 45 54 49 45 44 49 48 46 44 43 43
25 22 18 12 7 7 9 17 14 12 15 17 13 18 22 22 26 29 29 38 42 37 35 37 38 41 41 44 42 44 48 45 41 42 40 36 36 38 40 38 37 38 39 43
20 21 22 18 12 9 15 16 11 8 5 13 21 24 25 26 24 35 39 39 38 39 38 36 38 39 37 37 39 39 37 38 39 44 43 39 38 37 34 33 33 32 33 36
24 19 16 17 14 12 16 17 12 12 16 23 24 25 26 28 32 34 35 34 35 35 35 36 39 39 40 43 47 45 42 36 38 43 46 45 43 42 41 39 40 39 38 33
15 17 12 16 11 12 12 10 17 20 20 22 23 23 26 29 32 34 35 34 35 37 38 40 38 39 43 41 39 41 40 37 33 38 40 40 43 46 47 48 47 45 41 37
18 22 19 17 18 17 17 21 18 20 21 21 21 23 26 30 32 35 34 33 34 35 37 37 37 37 40 38 35 33 30 28 32 33 29 29 32 33 33 33 39 39 36 35
16 22 21 18 14 15 20 18 20 20 16 18 18 21 25 30 32 34 34 32 33 34 36 36 33 39 41 36 31 27 25 24 25 22 20 21 23 22 24 26 21 21 28 31
23 18 22 17 15 16 12 15 17 14 12 14 17 19 22 27 28 31 30 30 30 32 35 32 30 34 33 29 26 22 18 17 15 14 12 13 16 20 24 24 23 24 26 29
Wind_Direction
229 219 228 231 233 239 252 255 262 267 268 279 276 275 280 282 278 281 285 272 264 268 270 272 280 290 289 284 278 274 271 268 270 269 271 271 272 264 259 256 257 256 255 257
221 226 232 232 229 239 244 253 260 274 277 280 281 278 279 276 275 264 263 260 259 266 275 296 302 296 299 298 296 292 288 290 290 292 287 282 280 277 270 259 255 259 259 257
222 233 222 233 239 240 244 246 258 266 280 286 290 293 245 231 172 193 270 288 268 274 293 298 297 295 298 301 302 300 298 300 300 297 295 295 296 295 293 289 282 272 261 259
234 231 242 241 236 235 245 252 252 269 283 273 312 284 256 245 255 254 253 256 263 287 297 305 308 311 312 314 315 315 313 309 300 294 290 290 293 295 296 297 293 290 284 276
226 241 239 230 234 228 239 250 263 260 258 273 263 263 259 227 213 236 243 248 263 291 297 303 310 311 310 309 309 307 307 307 306 303 300 295 290 291 294 296 294 287 282 276
227 242 217 221 225 230 239 226 227 248 259 259 255 230 268 208 186 206 211 272 286 281 292 303 304 306 303 305 306 306 306 308 310 310 309 311 310 303 296 291 286 285 285 281
227 229 231 232 223 218 193 194 230 232 213 253 220 222 239 215 196 231 270 257 265 282 282 286 290 290 296 301 301 302 305 310 308 307 300 303 303 295 293 290 287 285 283 286
207 213 215 225 216 219 215 213 209 250 251 266 173 243 205 227 231 230 239 273 274 276 285 284 288 297 295 297 303 307 307 306 302 301 299 297 296 293 288 283 281 281 282 282
206 214 187 208 211 207 206 215 229 249 265 275 247 247 266 269 242 250 265 275 285 299 302 303 300 295 295 298 303 304 303 302 301 298 299 296 287 282 287 291 297 303 295 284
207 180 195 208 202 209 206 207 194 209 227 244 243 246 254 206 225 268 270 283 296 298 299 299 298 298 298 298 299 297 298 301 296 290 288 287 279 284 286 289 299 303 302 301
215 204 191 191 200 204 199 205 203 203 219 253 277 254 235 236 265 265 272 287 298 304 302 300 300 301 302 303 302 300 294 293 283 270 269 274 274 278 276 279 287 288 293 299
209 218 207 206 214 195 209 224 218 215 213 230 260 272 265 272 278 284 297 306 307 307 306 308 311 311 308 304 303 302 295 283 281 277 274 274 275 273 275 279 286 292 300 302
217 211 190 213 236 221 218 214 212 223 231 232 244 252 274 283 291 298 298 306 309 308 310 311 309 306 300 293 288 289 285 278 283 282 280 274 274 273 273 276 282 289 296 302
209 217 215 227 260 213 214 213 222 227 226 244 241 268 267 285 290 294 301 306 310 310 311 309 306 303 307 304 297 289 289 288 287 285 279 269 265 266 270 278 283 286 294 297
210 215 212 216 218 207 218 220 217 219 227 245 263 268 280 283 289 296 303 309 308 307 308 305 303 302 301 293 296 292 290 286 284 286 287 289 284 282 282 285 287 291 292 290
205 208 203 215 233 253 253 244 234 234 244 256 266 271 281 285 290 295 302 306 302 299 299 300 301 297 298 294 294 290 283 282 282 279 280 281 282 281 281 278 279 283 282 286
208 212 210 217 204 237 262 247 237 239 242 246 251 269 279 290 293 296 298 302 300 299 302 300 298 296 295 294 293 292 287 286 282 283 283 285 286 286 283 283 281 283 284 282
209 185 184 189 175 236 246 245 194 209 225 249 262 274 282 284 294 297 302 300 300 297 299 298 296 295 293 288 285 284 285 286 285 282 282 282 289 288 284 283 282 281 281 282
198 194 195 203 215 271 232 207 197 212 245 259 258 264 281 296 296 301 303 290 286 295 297 297 295 294 293 292 292 289 284 288 293 283 282 284 284 284 284 286 284 281 278 275
204 208 208 188 214 224 170 176 198 258 270 252 258 286 298 301 298 299 301 304 307 305 301 298 297 295 294 294 291 285 282 282 282 283 288 277 276 278 281 281 281 280 273 267
191 201 203 206 225 242 202 220 245 225 216 241 282 293 295 297 293 307 310 308 310 310 309 307 305 302 301 300 297 290 285 281 278 273 275 275 276 277 279 278 277 281 280 271
191 181 196 201 217 244 223 218 213 225 251 277 286 290 297 302 308 312 309 308 312 314 314 311 305 301 301 301 299 294 285 280 276 272 269 269 270 272 272 275 277 277 280 277
205 203 196 197 216 214 198 196 255 275 278 285 291 296 300 304 310 311 313 311 311 313 313 314 310 307 306 306 301 294 288 278 276 275 272 271 270 272 273 276 277 275 270 268
209 212 218 220 226 220 237 259 266 270 276 287 292 296 302 305 313 311 313 310 313 315 316 317 315 318 318 315 309 302 293 279 271 278 276 279 281 279 279 279 275 267 262 259
213 221 221 230 229 231 246 257 254 265 279 286 294 304 309 310 311 312 314 312 313 316 319 319 317 321 321 315 312 307 294 284 275 277 281 283 285 283 281 287 301 276 254 260
227 230 219 233 244 239 239 247 259 268 273 289 306 316 318 318 319 319 317 315 313 316 321 318 321 329 331 327 318 312 299 284 273 280 276 282 297 295 296 291 289 279 268 267